Kahului, HI

7:53 AM HST on August 31, 2016 (GMT -1000)
Kahului

Weather History for PHOG - May, 2013

Change the Weather History Date:

Friday, May 24, 2013

  Actual Average Record
Temperature  
Mean Temperature 82 °F 76 °F  
Max Temperature 90 °F 85 °F 90 °F (1968)
Min Temperature 73 °F 68 °F 58 °F (1952)
Degree Days  
Heating Degree Days 0 0  
Month to date heating degree days 0 0  
Since 1 July heating degree days 0 0  
Cooling Degree Days 17 11  
Month to date cooling degree days 299 251  
Year to date cooling degree days 1282 1177  
Growing Degree Days 30 (Base 50)    
Moisture  
Dew Point 69 °F    
Average Humidity 66    
Maximum Humidity 82    
Minimum Humidity 50    
Precipitation  
Precipitation T in 0.02 in 0.20 in (1984)
Month to date precipitation 0.77 0.65  
Year to date precipitation 6.97 9.41  
Snow  
Snow 0.00 in - - ()
Month to date snowfall 0.0  
Since 1 July snowfall 0.0  
Snow Depth 0.00 in    
Sea Level Pressure  
Sea Level Pressure 30.06 in    
Wind  
Wind Speed 16 mph (NE)    
Max Wind Speed 30 mph    
Max Gust Speed 36 mph    
Visibility 10 miles    
Events      
T = Trace of Precipitation, MM = Missing Value Source: NWS Daily Summary

Daily Weather History Graph

Daily Weather History Graph

Search for Another Location

Airport or City:

Trip Planner

Search our weather history database for the weather conditions in past years. The results will help you decide how hot, cold, wet, or windy it might be!

Date:

Astronomy

May. 24, 2013 Rise Set
Actual Time 5:45 AM HST 7:00 PM HST
Civil Twilight 5:21 AM HST 7:24 PM HST
Nautical Twilight 4:52 AM HST 7:53 PM HST
Astronomical Twilight 4:22 AM HST 8:22 PM HST
Moon 6:57 PM HST (5/24) 5:21 AM HST (5/24)
Length of Visible Light 14h 03m
Length of Day
13h 14m
Full, 100% of the Moon is Illuminated
May 24
Full
May 24
Full
May 31
Last Quarter
Jun 8
New
Jun 16
First Quarter

Hourly Weather History & Observations

Time (HST) Temp. Heat Index Dew Point Humidity Pressure Visibility Wind Dir Wind Speed Gust Speed Precip Events Conditions
12:54 AM 75.9 °F - 68.0 °F 76% 30.06 in 10.0 mi NE 10.4 mph - N/A   Mostly Cloudy
1:54 AM 75.0 °F - 69.1 °F 82% 30.05 in 10.0 mi NE 10.4 mph - N/A   Clear
2:54 AM 75.0 °F - 69.1 °F 82% 30.04 in 10.0 mi ENE 9.2 mph - N/A   Mostly Cloudy
3:54 AM 75.0 °F - 69.1 °F 82% 30.04 in 10.0 mi NNE 11.5 mph - N/A   Clear
4:54 AM 75.0 °F - 69.1 °F 82% 30.05 in 10.0 mi NNE 11.5 mph - N/A   Clear
5:54 AM 75.0 °F - 69.1 °F 82% 30.05 in 10.0 mi NNE 12.7 mph - N/A   Partly Cloudy
6:54 AM 77.0 °F - 69.1 °F 76% 30.07 in 10.0 mi NE 10.4 mph - N/A   Partly Cloudy
7:54 AM 81.0 °F 83.8 °F 68.0 °F 65% 30.08 in 10.0 mi NE 11.5 mph 23.0 mph N/A   Partly Cloudy
8:54 AM 84.0 °F 86.5 °F 66.9 °F 56% 30.08 in 10.0 mi NE 16.1 mph 24.2 mph N/A   Partly Cloudy
9:54 AM 86.0 °F 88.8 °F 66.9 °F 53% 30.08 in 10.0 mi NE 18.4 mph 26.5 mph N/A   Partly Cloudy
10:54 AM 88.0 °F 92.1 °F 69.1 °F 53% 30.06 in 10.0 mi NE 23.0 mph 29.9 mph N/A   Partly Cloudy
11:54 AM 89.1 °F 93.7 °F 69.1 °F 52% 30.07 in 10.0 mi NE 24.2 mph - N/A   Scattered Clouds
12:54 PM 87.1 °F 92.8 °F 71.1 °F 59% 30.06 in 10.0 mi NE 28.8 mph - 0.00 in   Scattered Clouds
1:54 PM 86.0 °F 90.1 °F 69.1 °F 57% 30.05 in 10.0 mi NE 19.6 mph 32.2 mph N/A   Scattered Clouds
2:54 PM 87.1 °F 89.9 °F 66.9 °F 51% 30.04 in 10.0 mi NE 21.9 mph 29.9 mph 0.00 in   Scattered Clouds
3:54 PM 84.9 °F 88.8 °F 69.1 °F 59% 30.03 in 10.0 mi NE 25.3 mph - N/A   Scattered Clouds
4:54 PM 84.0 °F 88.4 °F 70.0 °F 63% 30.04 in 10.0 mi NE 24.2 mph - N/A   Scattered Clouds
5:54 PM 80.1 °F 82.9 °F 69.1 °F 69% 30.06 in 10.0 mi NE 20.7 mph - N/A   Scattered Clouds
6:54 PM 78.1 °F - 69.1 °F 74% 30.07 in 10.0 mi NE 12.7 mph 21.9 mph N/A   Partly Cloudy
7:54 PM 75.9 °F - 66.9 °F 74% 30.08 in 10.0 mi NE 10.4 mph - N/A   Scattered Clouds
8:54 PM 75.9 °F - 68.0 °F 76% 30.09 in 10.0 mi NE 10.4 mph - N/A   Partly Cloudy
9:54 PM 75.9 °F - 68.0 °F 76% 30.11 in 10.0 mi NE 10.4 mph - N/A   Clear
10:54 PM 77.0 °F - 69.1 °F 76% 30.11 in 10.0 mi NE 15.0 mph 19.6 mph N/A   Partly Cloudy
11:54 PM 75.0 °F - 68.0 °F 79% 30.08 in 10.0 mi NE 11.5 mph - 0.00 in   Partly Cloudy